Regional Weather Roundup
Issued by NWS

Home | Current Version | Previous Version | Graphics & Text | Print | Product List | Glossary On
Versions: 1 2 3 4 5 6 7 8 9 10 11 12 13 14 15 16 17 18 19 20 21 22 23 24 25 26 27 28 29 30 31 32 33 34 35 36 37 38 39 40 41 42 43 44 45 46 47 48 49 50
000
ASUS43 KFSD 230902
RWRSD

WEATHER ROUNDUP FOR SOUTH DAKOTA
NATIONAL WEATHER SERVICE SIOUX FALLS SD
300 AM CST MON JAN 23 2017

NOTE: "FAIR" INDICATES FEW OR NO CLOUDS BELOW 12,000 FEET WITH NO
SIGNIFICANT WEATHER AND/OR OBSTRUCTIONS TO VISIBILITY.


SDZ001>005-009-010-012>017-231000-
NORTHWEST AND NORTH CENTRAL SOUTH DAKOTA

CITY           SKY/WX    TMP DP  RH WIND       PRES   REMARKS
BUFFALO          N/A     18  13  80 SE8       29.68F WCI   8
FAITH            N/A     24  21  88 NE5       29.79F WCI  18
MOBRIDGE       CLOUDY    30  23  75 NW6       29.81R WCI  24
$$

SDZ012>016-024>037-041>051-057-063-072>074-231000-
SOUTHWEST AND SOUTH CENTRAL SOUTH DAKOTA

CITY           SKY/WX    TMP DP  RH WIND       PRES   REMARKS
RAPID CTY ARPT CLOUDY    20  18  92 SW6       29.73S WCI  12
PIERRE         CLOUDY    27  23  85 CALM      29.84F
CUSTER         CLOUDY    26  12  55 VRB3      29.66F
ELLSWORTH AFB  CLOUDY    22  20  91 CALM      29.71F
PHILIP         FOG       20  19  96 E6        29.82F VSB 1/4 WCI  12
PINE RIDGE     CLEAR     16  13  88 CALM      29.75F FOG
SPEARFISH      FAIR      25  18  74 S7        29.68F WCI  17
WINNER         FOG       25  24  96 CALM      29.86S VSB 1/4
$$

SDZ004>011-016>023-039-040-231000-
NORTHEAST SOUTH DAKOTA

CITY           SKY/WX    TMP DP  RH WIND       PRES   REMARKS
ABERDEEN       CLOUDY    31  24  75 NW8       29.85S WCI  23
WATERTOWN      CLOUDY    30  27  88 NW10      29.82S WCI  21
BROOKINGS      CLOUDY    30  28  92 NW9       29.83S WCI  22
SISSETON         N/A     33  30  88 NW13      29.83R WCI  24
$$

SDZ017-020-022-023-036>040-048>070-231000-
SOUTHEAST SOUTH DAKOTA

CITY           SKY/WX    TMP DP  RH WIND       PRES   REMARKS
SIOUX FALLS    CLOUDY    32  29  88 NW9       29.87R WCI  24
HURON          CLOUDY    30  27  88 NW7       29.88R WCI  23
CHAMBERLAIN    CLOUDY    31  28  87 CALM      29.86S
MITCHELL       CLOUDY    31  27  85 NW9       29.89S WCI  23
YANKTON        CLOUDY    30  25  80 NW8       29.88F WCI  23
$$

ABBREVIATIONS USED IN REMARKS
   TC - TEMPERATURE IN CELSIUS
  WCI - WIND CHILL INDEX
   HX - HEAT INDEX
  VSB - VISIBILITY





USA.gov is the U.S. government's official web portal to all federal, state and local government web resources and services.